Location: Alphen
(52.1351°N, 4.6549°E)
Time: 02:15:32
(UTC+00:00)

CZ-2C R/B - Pass Details

Date: 27 January 2021
Orbit: 785 x 870 km, 98.2° (Epoch: 26 February)

Event Time Altitude Azimuth Distance (km) Brightness Sun altitude
Rises 06:36:00 0° 187° (S) 3,298 6.0 -8.2°
Reaches altitude 10° 06:38:27 10° 195° (SSW) 2,384 5.1 -7.9°
Maximum altitude 06:43:23 40° 264° (W) 1,199 3.1 -7.2°
Drops below altitude 10° 06:48:29 10° 333° (NNW) 2,452 4.7 -6.4°
Sets 06:51:02 0° 341° (NNW) 3,404 5.5 -6.1°
